Miscellaneous Local Product
Issued by NWS North Platte, NE

Home | Current Version | Previous Version | Text Only | Print | Product List | Glossary On
Versions: 1 2 3 4 5 6 7 8 9 10 11 12 13 14 15 16 17 18 19 20 21 22 23 24 25 26 27 28 29 30 31 32 33 34 35 36 37 38 39 40 41 42 43 44 45 46 47 48 49 50
000
AXUS43 KLBF 230910
MISLBF


WESTERN AND NORTH CENTRAL NEBRASKA HOURLY WEATHER ROUNDUP
NATIONAL WEATHER SERVICE NORTH PLATTE NE
400 AM CDT MON MAY 23 2016

NOTE: "FAIR" INDICATES FEW OR NO CLOUDS BELOW 12,000 FEET WITH NO
SIGNIFICANT WEATHER AND/OR OBSTRUCTIONS TO VISIBILITY.

NOTE: STATIONS NOT REPORTING VARIABLES SUCH AS SKY/WEATHER OR
PRESSURE ARE PROVIDED BY RAWS AND APRS NETWORKS AND ARE NOT UNDER
NATIONAL WEATHER SERVICE QUALITY CONTROL.

...OBSERVATIONS IN AND NEAR THE EASTERN PANHANDLE OF NEBRASKA...

CITY           SKY/WX    TMP DP  RH WIND       PRES   REMARKS
PINE RIDGE     CLEAR     50  37  61 VRB6      29.80R
CHADRON        CLEAR     44  39  82 S6        29.82S
ALLIANCE       PTCLDY    50  42  74 W12       29.86R
SIDNEY         CLOUDY    53  36  52 NW13      29.88F
CRESCENT LAKE    N/A     52  45  77 NW6         N/A
BIG SPRINGS      N/A     57  47  69 SW3         N/A
$$

...OBSERVATIONS IN NORTHERN NEBRASKA AND FAR SOUTHERN SOUTH DAKOTA...

CITY           SKY/WX    TMP DP  RH WIND       PRES   REMARKS
WINNER         CLOUDY    57  52  83 E9        29.70F
VALENTINE      CLOUDY    53  48  83 S5        29.76F
THEDFORD       CLOUDY    55  50  86 SE5       29.80F
AINSWORTH      CLOUDY    54  51  90 SE7       29.76F
O`NEILL        LGT RAIN  58  55  89 NW18G24   29.78R
ORD            CLOUDY    58  53  84 NW18      29.80R
BROKEN BOW     RAIN      56  50  80 NE12      29.79S
BUTTE            N/A     56  54  93 CALM        N/A
CHAMBERS         N/A     58  56  94 N3G15       N/A
EWING            N/A     60  58  95 CALM        N/A
$$

...OBSERVATIONS IN SOUTHWEST NEBRASKA AND FAR NORTHEAST COLORADO...

CITY           SKY/WX    TMP DP  RH WIND       PRES   REMARKS
WRAY           CLOUDY    55  45  67 CALM      29.87F
HOLYOKE        CLOUDY    59  46  63 W3        29.87S
IMPERIAL       CLOUDY    55  51  86 CALM      29.87R
OGALLALA       CLOUDY    54  47  77 W6        29.85R
NORTH PLATTE   CLOUDY    54  49  83 W6        29.84R
MCCOOK         LGT RAIN  55  52  89 NW7       29.86R FOG
LEXINGTON      CLOUDY    56  51  84 N3        29.84S
PAXTON           N/A     56  52  86 SW3         N/A
STAPLETON        N/A     52  49  90 CALM        N/A
GOTHENBURG       N/A     55  49  81 N3          N/A
CALLAWAY         N/A     54  51  89 N5          N/A
$$

...OBSERVATIONS IN CENTRAL LINCOLN COUNTY AREA...

CITY           SKY/WX    TMP DP  RH WIND       PRES   REMARKS
N.P. AIRPORT   CLOUDY    54  49  83 W6        29.84R
N.P. DOWNTOWN    N/A     54  51  90 CALM        N/A
N.P. HILLCREST   N/A     53  49  88 CALM        N/A
$$

...SOME OBSERVATIONS FROM AROUND THE REGION...

CITY           SKY/WX    TMP DP  RH WIND       PRES   REMARKS
DENVER         LGT RAIN  48  42  80 SE12      29.92S
LARAMIE        CLEAR     32  27  81 E9        29.98F WCI  24
CHEYENNE       CLEAR     44  27  51 W16       29.94S
SCOTTSBLUFF    MOCLDY    50  42  74 S7        29.89R
RAPID CITY     CLEAR     42  37  82 NW8       29.73S
BISMARCK       CLOUDY    54  52  93 CALM      29.62R
PIERRE         MOCLDY    56  52  86 S5        29.66F
SIOUX FALLS    LGT RAIN  60  58  92 S3        29.77F
OMAHA          CLOUDY    70  60  70 S20       29.79F
GRAND ISLAND   CLOUDY    69  64  84 S20G28    29.76S
KANSAS CITY    CLOUDY    66  55  67 S10       29.88F
WICHITA        CLOUDY    69  63  81 S15       29.77F
OKLAHOMA CITY  CLOUDY    69  66  90 SE17      29.83F
DALLAS         CLOUDY    74  68  81 S6        29.88R
AMARILLO       CLOUDY    61  60  97 SE15      29.85S FOG
DODGE CITY     CLOUDY    64  58  80 S20G25    29.75S
HAYS           PTCLDY    66  59  77 S9        29.73S
GOODLAND       CLOUDY    57  48  72 NE14      29.85R
$$




USA.gov is the U.S. government's official web portal to all federal, state and local government web resources and services.